Temperature
24 22 22 23 23 24 24 23 23 23 23 23 22 21 21 21 21 21 21 21 21 21 21 21 21 21 21 20 20 20 20 20 19 19 19 19 19 19 18 18 18 18 18 18
23 23 24 24 24 24 24 23 23 23 23 23 22 22 21 21 21 21 21 21 21 21 21 21 21 21 21 21 21 20 20 20 20 19 19 19 19 19 18 18 18 18 18 18
24 24 25 25 25 24 24 23 23 23 23 22 22 22 21 21 21 21 21 21 22 22 22 22 21 21 21 21 21 20 20 20 20 20 19 19 19 19 19 19 18 18 18 18
23 24 25 25 25 25 24 24 24 23 22 21 22 21 21 20 20 20 21 21 21 22 22 22 22 21 21 21 21 20 20 20 20 20 19 19 19 19 19 18 18 18 18 18
24 24 25 25 25 25 24 24 23 22 21 21 21 21 21 20 20 20 20 21 22 22 22 22 22 21 21 21 21 20 20 20 20 20 19 19 19 19 19 19 18 18 18 18
23 24 25 25 25 25 24 23 21 20 20 21 21 21 21 19 20 21 21 21 22 22 22 22 22 21 21 21 21 20 20 20 20 20 20 19 19 19 19 19 18 18 18 18
24 24 24 25 24 24 23 21 21 21 20 20 20 20 20 21 21 21 21 22 22 22 22 22 22 21 21 21 21 21 20 20 20 20 19 19 19 19 19 18 18 18 18 18
23 23 24 24 24 23 22 22 21 22 21 20 20 20 21 22 22 22 22 22 22 22 22 22 22 22 21 21 21 21 21 20 20 20 20 19 19 19 19 18 18 18 18 18
22 23 24 24 24 23 23 21 20 19 20 20 20 20 21 21 21 21 21 21 21 22 22 22 22 22 22 21 21 21 21 20 20 20 19 19 19 19 18 18 18 18 18 17
22 23 24 24 24 23 22 20 18 19 20 21 21 21 20 21 20 20 20 20 21 22 22 22 22 22 22 22 21 21 20 20 20 20 19 19 19 19 18 18 18 18 17 17
22 22 23 23 23 23 22 20 18 17 19 20 21 21 21 20 20 20 20 21 21 22 22 22 22 22 22 21 21 20 20 20 20 20 19 19 19 19 18 18 18 18 17 17
20 19 20 22 22 23 22 21 19 20 19 18 19 20 21 20 20 20 20 20 21 21 22 22 22 22 21 21 21 20 20 20 20 19 19 19 19 18 18 18 18 17 17 17
20 19 20 22 22 22 22 20 19 17 17 17 19 21 20 19 20 20 20 20 21 21 21 21 21 21 21 21 20 20 20 20 19 19 19 19 18 18 18 18 17 17 17 17
20 18 20 21 21 21 22 21 19 19 18 18 19 20 20 20 19 19 20 20 20 20 21 21 20 20 21 20 20 20 20 19 19 19 19 19 18 18 18 17 17 17 17 16
20 19 20 20 21 22 22 22 20 20 19 19 20 19 20 19 19 19 19 20 20 20 20 20 20 20 20 20 20 20 19 19 19 19 18 18 18 18 17 17 17 17 16 16
17 19 20 21 22 22 22 22 21 21 20 20 20 19 19 19 19 19 19 19 19 20 20 20 20 20 20 20 20 19 19 19 18 18 18 18 17 17 17 17 17 16 16 16
16 18 19 20 21 22 21 21 21 21 20 20 20 20 18 18 18 18 19 19 19 19 20 20 20 20 19 19 19 19 18 18 18 18 17 17 17 17 16 16 16 16 16 16
16 16 16 18 20 21 21 21 21 21 20 20 20 19 19 19 19 19 19 19 19 19 19 19 19 19 19 18 18 18 18 18 17 17 17 17 16 16 16 16 16 16 15 15
15 16 16 16 19 20 21 21 20 20 20 20 19 18 18 19 18 18 19 19 19 19 19 19 19 19 18 18 18 17 17 17 17 17 17 16 16 16 16 16 15 15 15 15
15 15 16 16 19 20 21 21 21 21 20 20 19 18 18 18 17 18 19 19 19 19 19 19 18 18 18 17 17 17 17 17 17 16 16 16 16 16 15 15 15 15 15 14
17 16 16 17 19 19 20 20 21 21 20 20 20 19 19 18 18 19 19 19 19 19 18 18 18 18 17 17 17 16 16 16 16 16 16 15 15 15 15 15 15 14 14 14
17 16 16 16 18 19 19 19 20 20 21 21 20 20 19 19 19 19 18 18 18 18 18 18 18 17 17 16 16 16 16 16 15 15 15 15 15 15 14 14 14 14 14 14
15 16 15 16 17 17 18 19 20 21 21 21 21 20 20 19 19 18 18 18 18 18 17 17 17 17 16 16 16 16 15 15 15 15 15 15 14 14 14 14 14 13 13 13
15 14 14 15 16 17 18 19 20 21 21 21 21 20 20 19 19 18 18 18 18 17 17 17 16 16 16 16 15 15 15 15 15 14 14 14 14 14 13 13 13 13 13 13
15 14 14 15 16 17 18 19 20 20 21 21 20 20 20 20 19 18 18 17 17 17 16 16 16 16 15 15 15 15 14 14 14 14 14 14 13 13 13 13 13 13 12 12
14 14 15 16 16 16 18 19 20 20 20 20 20 19 19 19 19 18 17 17 17 16 16 16 15 15 15 15 14 14 14 14 14 14 13 13 13 13 12 12 12 12 12 12
Wind_Speed
2 4 2 6 6 5 3 2 3 3 1 1 2 2 2 4 3 4 4 4 4 5 3 3 3 3 3 2 2 2 2 1 2 2 1 1 0 1 2 2 2 3 2 2
4 2 6 4 3 3 3 2 2 2 1 2 2 0 1 3 4 4 4 4 5 4 3 3 3 3 4 4 3 2 2 1 1 1 1 1 1 0 1 1 2 2 2 2
5 5 2 2 1 2 2 4 4 3 2 3 3 3 1 2 2 2 3 3 4 6 6 5 5 4 4 4 4 4 3 2 2 2 2 2 2 2 2 2 2 2 2 2
3 4 1 1 2 3 3 4 6 4 3 1 1 2 5 2 3 4 4 4 5 5 5 5 5 5 5 5 4 3 3 2 2 3 3 3 2 1 1 1 1 2 3 2
4 2 1 3 4 4 3 2 4 3 4 2 2 1 6 0 4 7 7 7 6 6 7 6 6 6 5 4 4 3 3 2 3 3 3 3 2 1 0 1 2 2 3 3
4 3 3 4 1 3 4 6 6 6 5 1 2 2 5 4 7 6 7 7 7 6 6 6 5 4 4 4 3 3 3 3 3 3 3 4 3 2 1 1 1 1 2 2
3 3 3 2 1 2 4 5 4 4 4 4 2 2 7 6 7 8 7 7 6 6 6 6 5 5 5 4 4 4 4 4 3 3 3 4 4 3 3 2 1 0 0 1
3 5 4 3 5 5 4 8 7 5 5 4 2 4 7 4 4 3 4 5 5 5 5 6 7 6 6 6 5 5 5 5 4 4 4 3 3 3 2 2 2 1 1 1
6 5 3 2 3 7 5 4 6 7 3 0 4 6 6 1 2 1 2 3 4 5 5 6 6 6 6 6 6 6 5 4 3 4 4 3 3 3 3 2 2 1 1 1
7 3 3 2 4 4 4 8 6 6 5 2 4 4 4 5 2 1 2 3 3 3 3 4 5 5 5 5 5 5 5 5 4 4 4 4 3 3 3 2 2 2 1 1
5 4 4 3 2 3 4 5 6 5 5 5 3 6 4 6 5 5 4 4 3 3 3 3 3 3 3 2 3 3 3 3 3 3 3 2 2 2 2 2 2 2 1 1
5 5 1 4 3 1 4 5 7 5 3 4 4 6 4 3 3 4 3 3 3 3 2 2 2 2 2 2 2 3 3 3 3 3 3 2 2 2 2 2 2 2 2 2
6 6 2 5 5 3 3 2 4 6 5 5 4 6 3 2 1 2 3 2 2 3 4 3 3 2 2 1 1 1 2 2 2 2 3 2 2 2 2 2 2 2 2 2
6 5 6 7 6 4 2 3 5 6 5 5 6 6 4 1 1 1 2 3 3 3 4 3 3 2 2 1 1 1 0 0 1 2 2 2 2 3 3 2 2 2 2 2
5 4 3 3 3 4 3 4 6 5 7 7 7 6 7 5 4 4 4 4 4 3 3 3 2 1 1 2 1 1 1 1 1 1 1 1 2 1 1 0 1 1 1 2
4 5 3 2 1 1 1 2 4 3 4 4 2 5 5 2 2 3 4 5 4 4 3 2 2 2 2 1 1 2 2 2 2 2 1 1 1 1 1 1 0 1 1 1
2 5 4 1 2 2 2 4 5 4 4 6 6 6 3 3 3 5 5 5 4 4 3 3 3 2 2 1 1 1 1 2 2 2 1 1 1 1 0 0 1 0 0 0
6 5 4 3 3 3 7 3 4 4 3 4 4 4 6 5 3 2 3 5 4 3 3 2 2 2 2 2 1 2 2 3 2 2 1 1 1 1 0 1 0 0 0 0
5 7 5 4 3 4 5 3 4 4 4 4 5 5 5 5 4 2 1 3 4 4 3 3 3 3 2 2 2 3 3 3 3 2 1 0 0 0 1 0 1 1 1 0
5 5 6 5 4 6 7 3 3 5 4 5 7 8 7 6 3 3 1 3 5 5 4 4 4 4 3 2 2 3 2 2 2 1 1 1 0 0 1 1 1 1 1 1
3 4 4 4 4 7 5 2 5 4 8 4 7 8 9 6 4 4 4 4 5 5 4 4 5 4 2 2 3 3 2 1 2 2 2 2 1 0 0 0 0 1 0 0
5 5 4 5 4 7 2 4 6 7 2 4 6 7 7 5 6 6 6 5 5 5 4 4 5 4 3 2 3 2 1 2 2 2 2 2 2 1 1 0 0 0 1 1
4 5 5 7 6 4 3 5 4 3 3 3 6 6 7 7 6 6 5 5 4 4 4 3 4 3 2 2 2 2 1 1 2 2 2 2 3 2 2 1 0 0 0 1
2 1 2 1 4 4 3 2 1 2 2 3 7 8 8 7 7 6 5 4 4 3 3 3 4 3 1 1 2 1 1 1 2 2 2 2 2 2 2 1 0 0 1 1
3 1 1 2 3 3 4 2 0 3 5 7 6 6 7 8 7 6 5 4 3 3 3 3 3 2 1 1 2 2 1 2 2 1 2 2 2 1 2 2 1 1 2 3
3 5 5 5 6 4 4 2 1 4 5 6 7 6 5 7 7 6 5 4 4 3 3 3 2 1 1 1 1 2 1 1 1 1 1 1 1 1 1 1 2 2 2 3
Wind_Direction
66 83 207 220 198 199 174 183 266 272 257 122 150 160 208 187 175 182 194 201 209 215 209 184 174 156 146 144 137 140 122 103 96 87 99 84 25 9 16 13 20 33 44 63
45 266 235 208 176 167 171 199 245 305 20 117 124 76 227 202 206 202 200 210 212 206 196 188 179 167 169 172 171 168 167 149 136 144 144 140 126 60 22 2 16 28 41 47
193 235 214 145 143 155 210 195 209 198 46 57 82 354 286 259 241 219 206 216 216 205 202 195 191 193 184 189 191 190 188 168 147 127 100 78 53 33 25 21 13 9 34 45
234 256 204 172 231 171 256 221 181 167 117 342 75 277 289 262 257 237 231 223 220 209 195 193 194 197 199 208 196 191 183 167 162 142 133 129 127 134 290 345 6 6 23 39
248 227 185 230 234 172 206 106 113 112 115 71 27 137 287 309 245 243 231 221 216 201 192 192 197 198 201 200 194 196 186 183 177 163 160 155 152 167 43 34 27 18 16 28
239 241 208 217 237 153 134 71 56 51 69 25 252 169 276 237 228 237 228 217 213 204 196 198 198 192 195 195 192 189 188 206 192 174 168 168 169 160 124 59 32 10 14 19
308 291 249 175 92 39 98 93 39 2 8 259 268 200 251 247 230 224 221 210 200 195 197 196 195 197 198 199 197 191 191 214 205 186 190 192 189 180 181 191 200 232 357 358
192 277 246 189 176 182 171 144 161 197 215 267 312 241 257 261 253 229 204 191 178 182 197 204 203 200 199 202 202 196 199 215 210 198 208 206 194 188 199 203 196 205 221 241
181 241 282 223 178 148 145 163 158 131 135 338 287 286 303 354 30 72 140 162 178 184 196 204 199 198 198 201 203 199 202 211 212 207 208 209 201 195 204 206 197 209 225 232
159 219 288 289 84 50 135 142 105 119 144 233 290 282 265 285 276 223 182 185 196 180 178 186 191 197 198 199 201 192 195 204 208 205 210 208 206 204 202 192 205 213 223 239
135 162 308 17 127 169 105 95 102 108 143 156 233 270 240 234 230 206 201 192 185 173 176 171 180 188 176 164 172 187 196 200 204 202 197 192 192 189 186 194 215 216 216 214
140 126 250 277 286 172 142 154 146 146 191 170 180 263 295 228 211 186 182 172 151 149 142 134 136 120 118 140 169 186 195 199 208 196 183 190 188 175 186 203 213 193 197 201
136 119 86 341 344 15 92 124 130 122 118 151 173 263 329 39 82 128 139 136 117 110 97 84 83 94 109 121 147 182 197 205 200 172 173 184 201 198 207 214 202 184 186 183
120 112 158 194 216 199 173 160 147 126 142 185 217 243 287 290 181 150 136 133 121 114 107 96 84 77 94 97 103 100 44 137 175 167 175 194 221 217 217 214 194 184 183 186
105 131 172 212 213 178 182 184 168 170 177 182 221 220 242 222 200 181 156 143 129 120 117 119 121 112 74 64 55 60 47 42 83 115 138 223 247 235 195 205 181 164 181 209
74 124 116 19 2 179 144 183 177 181 176 199 194 246 257 196 145 149 151 153 155 153 149 143 128 111 98 85 71 69 58 46 76 90 76 358 30 62 76 62 86 142 141 201
101 122 114 208 316 59 259 223 193 198 197 173 196 226 181 145 168 173 165 162 171 169 158 147 143 137 135 132 121 112 96 81 75 70 53 44 60 75 82 109 79 114 200 112
134 114 119 128 94 210 247 252 180 178 226 207 211 206 176 169 144 139 153 158 167 161 149 143 133 118 107 89 78 88 85 80 74 66 61 67 103 128 139 130 169 238 119 172
143 134 121 128 166 265 285 236 169 162 252 216 190 173 142 113 75 32 102 138 152 148 142 138 125 115 104 99 106 94 76 77 77 62 30 341 143 195 189 193 241 217 177 207
75 97 116 129 152 218 241 234 161 112 279 226 177 166 153 130 138 231 138 101 104 102 105 103 92 89 90 84 96 92 73 60 44 3 334 334 356 201 227 230 228 222 193 229
74 71 120 149 191 250 248 226 131 163 239 206 171 168 163 171 184 161 130 109 110 111 105 99 96 96 96 96 100 92 64 8 331 349 12 18 30 14 238 224 228 183 171 182
167 152 169 148 175 245 255 142 178 214 237 157 163 162 152 135 122 127 126 119 114 109 103 101 99 89 78 91 105 90 31 333 353 15 29 26 21 7 12 57 348 131 161 183
189 190 185 186 210 251 240 224 239 181 172 174 159 150 138 134 136 134 130 126 122 118 114 104 105 98 68 75 106 93 338 359 33 34 28 23 18 14 8 351 307 333 188 216
277 120 135 257 284 293 286 275 290 174 179 160 147 141 139 139 142 136 135 131 123 111 108 105 102 94 56 19 43 51 353 37 59 45 23 16 19 4 1 354 327 226 235 238
234 151 124 262 285 335 327 316 11 85 96 106 112 121 134 134 136 138 141 142 136 120 110 110 114 118 113 30 17 13 22 60 58 35 13 8 2 352 345 333 298 257 247 233
218 188 182 221 219 192 238 271 111 106 104 116 115 113 126 136 141 138 140 141 138 131 120 113 111 109 60 52 12 356 7 65 99 28 338 334 329 333 332 333 342 337 280 282
Height
1494 1500 1506 1503 1501 1502 1505 1510 1514 1509 1502 1505 1508 1509 1506 1505 1506 1507 1508 1509 1510 1511 1512 1514 1515 1515 1516 1516 1516 1516 1516 1516 1516 1516 1516 1516 1516 1516 1517 1517 1516 1516 1516 1516
1500 1503 1496 1494 1496 1500 1504 1511 1512 1508 1502 1506 1509 1509 1506 1506 1505 1506 1507 1507 1508 1510 1511 1513 1514 1515 1515 1516 1516 1516 1516 1516 1517 1517 1517 1517 1517 1517 1517 1517 1517 1517 1516 1516
1500 1497 1492 1494 1497 1502 1504 1508 1509 1510 1507 1506 1509 1514 1510 1506 1506 1506 1506 1506 1507 1508 1509 1511 1513 1514 1515 1515 1516 1516 1516 1517 1517 1517 1517 1517 1517 1517 1517 1517 1517 1517 1517 1516
1496 1492 1491 1494 1497 1499 1507 1498 1500 1505 1513 1521 1516 1529 1513 1509 1507 1505 1504 1505 1505 1506 1508 1510 1511 1513 1514 1515 1516 1516 1516 1517 1517 1517 1517 1517 1517 1517 1517 1517 1517 1517 1517 1517
1495 1491 1492 1495 1494 1494 1498 1495 1500 1506 1514 1522 1521 1527 1520 1510 1509 1504 1502 1502 1503 1504 1506 1508 1510 1511 1513 1514 1515 1515 1516 1516 1517 1517 1517 1517 1517 1517 1517 1517 1517 1517 1517 1517
1491 1488 1489 1490 1489 1491 1493 1500 1506 1514 1521 1533 1525 1528 1524 1513 1505 1500 1498 1499 1500 1502 1504 1506 1508 1510 1511 1513 1514 1514 1515 1515 1516 1516 1517 1517 1517 1517 1517 1517 1517 1517 1517 1517
1495 1490 1487 1487 1492 1493 1496 1513 1531 1534 1541 1537 1523 1525 1520 1501 1496 1495 1495 1496 1497 1500 1502 1504 1506 1507 1509 1511 1512 1513 1514 1514 1515 1515 1516 1516 1516 1516 1516 1516 1516 1516 1516 1516
1505 1504 1488 1485 1489 1496 1499 1507 1529 1540 1543 1536 1524 1525 1509 1495 1493 1492 1493 1494 1496 1498 1500 1501 1503 1505 1507 1508 1510 1511 1512 1512 1513 1514 1514 1515 1515 1515 1515 1516 1515 1515 1515 1515
1503 1502 1485 1483 1483 1488 1499 1507 1507 1525 1532 1537 1529 1518 1503 1493 1493 1492 1492 1493 1494 1496 1497 1499 1501 1503 1504 1506 1507 1509 1510 1511 1512 1512 1513 1513 1514 1514 1514 1515 1515 1514 1514 1514
1491 1499 1488 1484 1483 1487 1491 1500 1514 1525 1537 1540 1529 1522 1515 1500 1496 1493 1493 1493 1494 1495 1497 1498 1500 1501 1503 1504 1506 1507 1508 1509 1510 1511 1511 1512 1512 1512 1513 1513 1513 1513 1513 1513
1485 1497 1495 1489 1491 1493 1497 1503 1513 1524 1525 1537 1538 1525 1498 1496 1493 1493 1492 1492 1493 1494 1496 1497 1499 1500 1502 1503 1505 1506 1507 1508 1508 1509 1509 1510 1510 1511 1511 1511 1511 1512 1511 1511
1485 1497 1505 1496 1487 1485 1489 1497 1506 1518 1526 1529 1531 1522 1491 1490 1490 1491 1491 1492 1493 1494 1496 1497 1498 1500 1501 1503 1504 1505 1506 1506 1507 1508 1508 1508 1508 1509 1509 1509 1509 1510 1510 1510
1484 1497 1511 1508 1501 1493 1493 1496 1500 1509 1522 1529 1530 1516 1491 1490 1490 1491 1492 1493 1494 1495 1496 1498 1499 1499 1501 1502 1503 1504 1505 1505 1506 1506 1507 1506 1507 1507 1507 1507 1507 1507 1507 1507
1477 1494 1503 1510 1504 1496 1495 1495 1499 1505 1518 1522 1517 1507 1496 1492 1491 1492 1493 1494 1495 1495 1496 1497 1499 1500 1501 1502 1503 1503 1504 1504 1504 1504 1505 1505 1505 1505 1505 1505 1505 1505 1505 1505
1477 1492 1493 1492 1489 1489 1490 1491 1495 1498 1503 1509 1504 1502 1495 1491 1490 1491 1492 1494 1495 1496 1496 1497 1498 1500 1501 1502 1502 1502 1502 1502 1503 1503 1503 1503 1503 1503 1503 1503 1502 1503 1503 1503
1481 1490 1492 1493 1488 1488 1490 1489 1491 1493 1496 1498 1498 1498 1489 1489 1490 1490 1491 1493 1494 1495 1496 1497 1498 1499 1501 1501 1502 1501 1502 1502 1502 1501 1501 1502 1501 1501 1501 1500 1500 1500 1500 1500
1486 1491 1499 1503 1494 1491 1499 1490 1490 1490 1489 1492 1496 1491 1487 1488 1489 1489 1490 1492 1494 1495 1496 1497 1498 1499 1500 1501 1501 1501 1501 1501 1501 1501 1500 1500 1500 1500 1499 1499 1499 1498 1498 1499
1485 1493 1502 1505 1501 1510 1496 1482 1482 1485 1485 1485 1485 1484 1484 1485 1488 1489 1490 1491 1493 1495 1496 1497 1498 1499 1500 1501 1501 1501 1501 1500 1500 1499 1499 1499 1498 1498 1497 1497 1497 1497 1497 1497
1479 1489 1502 1509 1509 1503 1489 1481 1481 1485 1486 1481 1482 1482 1484 1486 1488 1490 1490 1491 1492 1494 1495 1497 1498 1498 1499 1500 1500 1500 1500 1499 1498 1498 1497 1497 1496 1496 1495 1495 1495 1495 1495 1495
1482 1485 1498 1506 1507 1508 1490 1477 1476 1481 1488 1478 1479 1481 1483 1485 1492 1491 1490 1490 1492 1494 1495 1496 1497 1498 1499 1500 1500 1499 1499 1498 1497 1496 1496 1495 1495 1495 1494 1493 1493 1493 1493 1493
1488 1493 1498 1502 1502 1495 1479 1475 1477 1492 1487 1474 1476 1478 1480 1483 1486 1487 1489 1490 1491 1493 1494 1496 1497 1497 1498 1498 1498 1498 1498 1497 1496 1496 1495 1494 1494 1493 1492 1492 1491 1491 1490 1490
1488 1494 1497 1501 1501 1495 1474 1475 1478 1477 1471 1472 1474 1476 1479 1482 1484 1486 1488 1490 1491 1492 1494 1495 1495 1496 1497 1497 1497 1497 1496 1496 1495 1494 1493 1493 1492 1492 1491 1490 1489 1489 1488 1488
1484 1484 1485 1487 1486 1475 1472 1471 1471 1470 1471 1471 1473 1476 1479 1482 1484 1486 1488 1490 1492 1492 1494 1495 1495 1495 1496 1496 1496 1495 1495 1494 1494 1493 1492 1491 1491 1490 1489 1488 1487 1487 1486 1486
1480 1479 1481 1481 1476 1473 1471 1470 1470 1470 1470 1471 1473 1476 1479 1482 1484 1486 1488 1490 1491 1492 1493 1494 1495 1495 1495 1495 1495 1494 1494 1494 1493 1492 1491 1490 1490 1489 1488 1487 1486 1485 1484 1483
1478 1478 1480 1479 1475 1472 1471 1470 1470 1470 1471 1472 1475 1477 1479 1482 1484 1486 1488 1489 1491 1492 1493 1494 1494 1494 1494 1494 1494 1494 1493 1493 1492 1491 1490 1489 1488 1487 1486 1485 1484 1483 1482 1481
1475 1476 1478 1476 1472 1472 1471 1471 1471 1471 1472 1474 1476 1478 1480 1482 1484 1486 1488 1489 1490 1491 1492 1493 1493 1494 1494 1493 1493 1493 1492 1492 1491 1490 1489 1488 1487 1485 1484 1483 1482 1481 1481 1479